SVR237 UUDD-URSS

Flight info

Callsign SVR237
Flight time N/A
Altitude 35000
Route LINRU4N LINRU L4 EKTUT N72 UMSIS N166 ADNET W79 BINOL BINOL1L
Aircraft A321/M-SDE3FGHIRWY/LB1

Departure

Time 2026-05-05 16:25
Airport Domodedovo International Airport (UUDD)

Arrival

Time N/A
Airport Sochi International Airport (URSS)
Time Latitude Longitude Altitude Speed Heading
2026-05-05 15:53 55.41468 37.90905 589 ft 0 kts 315°
2026-05-05 16:11 55.41467 37.90908 590 ft 1 kts 315°
2026-05-05 16:11 55.41437 37.90966 590 ft 2 kts 325°
2026-05-05 16:12 55.41424 37.90970 590 ft 2 kts 24°
2026-05-05 16:12 55.41410 37.90928 590 ft 2 kts 66°
2026-05-05 16:13 55.41431 37.90978 590 ft 3 kts 55°
2026-05-05 16:13 55.41446 37.91017 590 ft 3 kts 55°
2026-05-05 16:13 55.41461 37.91055 590 ft 3 kts 60°
2026-05-05 16:14 55.41447 37.91130 590 ft 3 kts 146°
2026-05-05 16:14 55.41431 37.91142 590 ft 0 kts 154°
2026-05-05 16:16 55.41430 37.91143 590 ft 0 kts 154°
2026-05-05 16:16 55.41380 37.91213 590 ft 8 kts 134°
2026-05-05 16:17 55.41271 37.91390 590 ft 7 kts 136°
2026-05-05 16:17 55.41220 37.91478 590 ft 13 kts 135°
2026-05-05 16:18 55.41144 37.91610 590 ft 0 kts 135°
2026-05-05 16:18 55.41139 37.91619 590 ft 3 kts 135°
2026-05-05 16:18 55.41044 37.91783 590 ft 13 kts 135°
2026-05-05 16:19 55.41010 37.91843 590 ft 7 kts 135°
2026-05-05 16:19 55.40973 37.91926 590 ft 10 kts 111°
2026-05-05 16:19 55.40927 37.92232 590 ft 15 kts 105°
2026-05-05 16:20 55.40808 37.92588 590 ft 19 kts 148°
2026-05-05 16:20 55.40569 37.92880 590 ft 22 kts 146°
2026-05-05 16:21 55.40339 37.93161 590 ft 16 kts 145°
2026-05-05 16:22 55.40151 37.93388 590 ft 15 kts 142°
2026-05-05 16:22 55.39948 37.93638 590 ft 23 kts 147°
2026-05-05 16:23 55.39718 37.93853 590 ft 18 kts 214°
2026-05-05 16:23 55.39613 37.93829 590 ft 20 kts 142°
2026-05-05 16:23 55.39576 37.94289 590 ft 20 kts 79°
2026-05-05 16:24 55.39617 37.94450 590 ft 10 kts 45°
2026-05-05 16:24 55.39688 37.94478 590 ft 12 kts 338°
2026-05-05 16:24 55.40320 37.93726 590 ft 125 kts 326°
2026-05-05 16:25 55.41203 37.92674 592 ft 185 kts 325°
2026-05-05 16:25 55.43399 37.90009 1585 ft 191 kts 323°
2026-05-05 16:25 55.44474 37.88673 2102 ft 189 kts 321°
2026-05-05 16:26 55.46197 37.85304 2805 ft 194 kts 278°
2026-05-05 16:26 55.44814 37.81115 3333 ft 234 kts 213°
2026-05-05 16:27 55.43200 37.80202 3712 ft 255 kts 186°
2026-05-05 16:27 55.41429 37.80925 4138 ft 277 kts 152°
2026-05-05 16:27 55.40108 37.83422 4785 ft 288 kts 117°
2026-05-05 16:27 55.39664 37.86803 5462 ft 292 kts 94°
2026-05-05 16:28 55.39463 37.90384 6100 ft 295 kts 108°
2026-05-05 16:28 55.38462 37.93402 6692 ft 291 kts 141°
2026-05-05 16:28 55.36731 37.95024 7347 ft 282 kts 174°
2026-05-05 16:28 55.34818 37.94955 7985 ft 276 kts 193°
2026-05-05 16:29 55.32895 37.94570 8592 ft 282 kts 188°
2026-05-05 16:29 55.30918 37.94495 9198 ft 287 kts 183°
2026-05-05 16:29 55.28923 37.94686 9802 ft 292 kts 179°
2026-05-05 16:29 55.26893 37.95064 10321 ft 299 kts 177°
2026-05-05 16:30 55.24783 37.95572 10609 ft 315 kts 175°
2026-05-05 16:30 55.22566 37.96186 10875 ft 330 kts 174°
2026-05-05 16:30 55.20243 37.96879 11144 ft 344 kts 174°
2026-05-05 16:30 55.17855 37.97617 11389 ft 358 kts 173°
2026-05-05 16:31 55.15357 37.98408 11804 ft 365 kts 173°
2026-05-05 16:31 55.12853 37.99210 12399 ft 368 kts 173°
2026-05-05 16:31 55.10351 38.00013 12962 ft 370 kts 173°
2026-05-05 16:31 55.07831 38.00822 13503 ft 373 kts 173°
2026-05-05 16:32 55.05263 38.01644 14046 ft 375 kts 173°
2026-05-05 16:32 55.02700 38.02462 14573 ft 377 kts 173°
2026-05-05 16:32 55.00122 38.03284 15092 ft 380 kts 173°
2026-05-05 16:32 54.97533 38.04109 15609 ft 382 kts 173°
2026-05-05 16:33 54.94936 38.04937 16108 ft 385 kts 173°
2026-05-05 16:33 54.92272 38.05783 16609 ft 387 kts 172°
2026-05-05 16:33 54.89643 38.06618 17094 ft 389 kts 172°
2026-05-05 16:33 54.86937 38.07478 17575 ft 392 kts 172°
2026-05-05 16:34 54.84275 38.08321 18037 ft 394 kts 172°
2026-05-05 16:34 54.81572 38.09176 18498 ft 396 kts 172°
2026-05-05 16:34 54.78867 38.10031 18928 ft 399 kts 172°
2026-05-05 16:34 54.76122 38.10897 19339 ft 402 kts 172°
2026-05-05 16:35 54.73334 38.11776 19754 ft 405 kts 172°
2026-05-05 16:35 54.70570 38.12645 20146 ft 408 kts 172°
2026-05-05 16:35 54.67748 38.13531 20540 ft 411 kts 172°
2026-05-05 16:35 54.64943 38.14411 20924 ft 414 kts 172°
2026-05-05 16:36 54.62116 38.15297 21305 ft 417 kts 172°
2026-05-05 16:36 54.59264 38.16190 21676 ft 419 kts 172°
2026-05-05 16:36 54.56391 38.17086 22042 ft 422 kts 172°
2026-05-05 16:36 54.53511 38.17982 22393 ft 424 kts 172°
2026-05-05 16:37 54.50609 38.18888 22749 ft 427 kts 172°
2026-05-05 16:37 54.47702 38.19794 23085 ft 429 kts 172°
2026-05-05 16:37 54.44756 38.20708 23420 ft 432 kts 171°
2026-05-05 16:37 54.41803 38.21623 23766 ft 434 kts 171°
2026-05-05 16:38 54.38823 38.22546 24106 ft 436 kts 171°
2026-05-05 16:38 54.35828 38.23480 24426 ft 438 kts 171°
2026-05-05 16:38 54.32872 38.24594 24746 ft 441 kts 167°
2026-05-05 16:38 54.29909 38.25890 25061 ft 443 kts 167°
2026-05-05 16:39 54.26913 38.27189 25359 ft 445 kts 167°
2026-05-05 16:39 54.23913 38.28486 25653 ft 447 kts 167°
2026-05-05 16:39 54.20917 38.29779 25949 ft 448 kts 167°
2026-05-05 16:39 54.17874 38.31092 26232 ft 450 kts 167°
2026-05-05 16:40 54.14862 38.32390 26505 ft 452 kts 167°
2026-05-05 16:40 54.11810 38.33704 26778 ft 453 kts 167°
2026-05-05 16:40 54.08776 38.35007 27039 ft 455 kts 167°
2026-05-05 16:40 54.05676 38.36337 27315 ft 456 kts 167°
2026-05-05 16:41 54.02583 38.37663 27567 ft 458 kts 167°
2026-05-05 16:41 53.99498 38.38983 27807 ft 460 kts 167°
2026-05-05 16:41 53.96432 38.40293 28116 ft 459 kts 167°
2026-05-05 16:41 53.93307 38.41626 28483 ft 458 kts 167°
2026-05-05 16:42 53.90219 38.42941 28810 ft 457 kts 167°
2026-05-05 16:42 53.87145 38.44248 29109 ft 457 kts 167°
2026-05-05 16:42 53.84060 38.45559 29411 ft 457 kts 167°
2026-05-05 16:42 53.80960 38.46874 29727 ft 456 kts 167°
2026-05-05 16:43 53.77896 38.48169 30016 ft 456 kts 166°
2026-05-05 16:43 53.74825 38.49447 30288 ft 455 kts 168°
2026-05-05 16:43 53.71727 38.50517 30563 ft 455 kts 169°
2026-05-05 16:43 53.68627 38.51535 30820 ft 455 kts 169°
2026-05-05 16:44 53.65486 38.52575 31060 ft 455 kts 169°
2026-05-05 16:44 53.62423 38.53589 31298 ft 455 kts 169°
2026-05-05 16:44 53.59313 38.54615 31535 ft 455 kts 169°
2026-05-05 16:44 53.56204 38.55639 31791 ft 454 kts 169°
2026-05-05 16:45 53.53104 38.56658 32023 ft 454 kts 169°
2026-05-05 16:45 53.50003 38.57674 32252 ft 454 kts 169°
2026-05-05 16:45 53.46943 38.58675 32478 ft 454 kts 169°
2026-05-05 16:45 53.43817 38.59696 32697 ft 453 kts 168°
2026-05-05 16:46 53.40768 38.60690 32925 ft 453 kts 168°
2026-05-05 16:46 53.37677 38.61699 33146 ft 453 kts 168°
2026-05-05 16:46 53.34581 38.62706 33325 ft 453 kts 168°
2026-05-05 16:46 53.31480 38.63712 33481 ft 454 kts 168°
2026-05-05 16:47 53.28415 38.64707 33641 ft 455 kts 168°
2026-05-05 16:47 53.25351 38.65701 33809 ft 455 kts 169°
2026-05-05 16:47 53.22443 38.66641 33967 ft 455 kts 169°
2026-05-05 16:47 53.19047 38.67738 34141 ft 456 kts 168°
2026-05-05 16:48 53.15936 38.68741 34286 ft 456 kts 168°
2026-05-05 16:48 53.12839 38.69739 34444 ft 456 kts 168°
2026-05-05 16:48 53.09747 38.70733 34593 ft 457 kts 168°
2026-05-05 16:48 53.06609 38.71741 34741 ft 457 kts 168°
2026-05-05 16:49 53.03486 38.72743 34879 ft 457 kts 168°
2026-05-05 16:49 53.00412 38.73728 34923 ft 457 kts 168°
2026-05-05 16:49 52.94134 38.75734 34921 ft 458 kts 168°
2026-05-05 16:50 52.87901 38.77718 34922 ft 457 kts 168°
2026-05-05 16:50 52.81636 38.79708 34931 ft 457 kts 168°
2026-05-05 16:51 52.75430 38.81673 34931 ft 457 kts 168°
2026-05-05 16:51 52.69188 38.83644 34930 ft 457 kts 168°
2026-05-05 16:52 52.62952 38.85606 34942 ft 456 kts 168°
2026-05-05 16:52 52.56733 38.87559 34935 ft 456 kts 168°
2026-05-05 16:53 52.50531 38.89498 34929 ft 456 kts 168°
2026-05-05 16:53 52.44346 38.91737 34941 ft 455 kts 163°
2026-05-05 16:54 52.38387 38.95163 34943 ft 454 kts 155°
2026-05-05 16:54 52.32788 38.99770 34943 ft 452 kts 148°
2026-05-05 16:55 52.27534 39.05304 34945 ft 452 kts 145°
2026-05-05 16:55 52.22293 39.10944 34944 ft 452 kts 145°
2026-05-05 16:56 52.17063 39.16530 34945 ft 451 kts 146°
2026-05-05 16:56 52.11791 39.22138 34954 ft 451 kts 146°
2026-05-05 16:57 52.06566 39.27678 34960 ft 451 kts 146°
2026-05-05 16:57 52.01316 39.33228 34967 ft 451 kts 146°
2026-05-05 16:58 51.96094 39.38733 34965 ft 451 kts 146°
2026-05-05 16:58 51.90829 39.44268 34967 ft 451 kts 146°
2026-05-05 16:59 51.85572 39.49781 34967 ft 451 kts 146°
2026-05-05 16:59 51.80327 39.55263 34968 ft 450 kts 146°
2026-05-05 17:00 51.74957 39.60480 34971 ft 451 kts 150°
2026-05-05 17:00 51.69247 39.64726 34969 ft 452 kts 157°
2026-05-05 17:01 51.63400 39.68002 34973 ft 452 kts 161°
2026-05-05 17:01 51.57455 39.71225 34974 ft 452 kts 160°
2026-05-05 17:02 51.51522 39.74438 34980 ft 452 kts 160°
2026-05-05 17:02 51.45598 39.77636 34977 ft 452 kts 160°
2026-05-05 17:03 51.39618 39.80855 34974 ft 452 kts 160°
2026-05-05 17:03 51.33690 39.84038 34978 ft 452 kts 160°
2026-05-05 17:04 51.27748 39.87219 34976 ft 452 kts 160°
2026-05-05 17:04 51.21780 39.90405 34975 ft 452 kts 160°
2026-05-05 17:05 51.15871 39.93550 34979 ft 452 kts 160°
2026-05-05 17:05 51.09904 39.96718 34981 ft 452 kts 160°
2026-05-05 17:06 51.03965 39.99858 34975 ft 452 kts 160°
2026-05-05 17:06 50.97994 40.03006 34983 ft 452 kts 160°
2026-05-05 17:07 50.92055 40.06128 34980 ft 452 kts 160°
2026-05-05 17:07 50.86111 40.09244 34979 ft 452 kts 160°
2026-05-05 17:08 50.80142 40.12367 34982 ft 451 kts 160°
2026-05-05 17:08 50.74215 40.15459 34978 ft 451 kts 160°
2026-05-05 17:09 50.68275 40.18551 34988 ft 451 kts 160°
2026-05-05 17:09 50.62323 40.21639 34982 ft 451 kts 160°
2026-05-05 17:10 50.56393 40.24708 34987 ft 451 kts 160°
2026-05-05 17:10 50.50426 40.27790 34988 ft 451 kts 160°
2026-05-05 17:11 50.44505 40.30837 34987 ft 451 kts 160°
2026-05-05 17:11 50.38579 40.33881 34986 ft 450 kts 160°
2026-05-05 17:12 50.32604 40.36941 34992 ft 450 kts 160°
2026-05-05 17:12 50.26691 40.39961 34992 ft 450 kts 160°
2026-05-05 17:13 50.20748 40.42990 34992 ft 450 kts 160°
2026-05-05 17:13 50.14817 40.46003 34994 ft 450 kts 160°
2026-05-05 17:14 50.08880 40.49011 34997 ft 450 kts 160°
2026-05-05 17:14 50.02928 40.52016 34999 ft 450 kts 160°
2026-05-05 17:15 49.97013 40.54987 35008 ft 449 kts 160°
2026-05-05 17:15 49.91068 40.57966 35005 ft 449 kts 160°
2026-05-05 17:16 49.85164 40.60918 35006 ft 449 kts 160°
2026-05-05 17:16 49.79535 40.63723 35014 ft 449 kts 160°
2026-05-05 17:17 49.73605 40.66674 35005 ft 449 kts 161°
2026-05-05 17:17 49.67610 40.69194 35014 ft 450 kts 166°
2026-05-05 17:18 49.61426 40.70674 35007 ft 451 kts 173°
2026-05-05 17:18 49.55171 40.71062 35011 ft 452 kts 179°
2026-05-05 17:19 49.48898 40.70860 35010 ft 452 kts 179°
2026-05-05 17:19 49.42594 40.70679 35016 ft 452 kts 179°
2026-05-05 17:20 49.36333 40.70506 35006 ft 451 kts 179°
2026-05-05 17:20 49.30076 40.70343 35008 ft 451 kts 179°
2026-05-05 17:21 49.23843 40.70182 35007 ft 451 kts 179°
2026-05-05 17:22 49.14467 40.69938 35015 ft 450 kts 179°
2026-05-05 17:22 49.08189 40.69775 35019 ft 450 kts 179°
2026-05-05 17:23 49.01968 40.69613 35010 ft 450 kts 179°
2026-05-05 17:23 48.95705 40.69439 35008 ft 450 kts 180°
2026-05-05 17:24 48.89482 40.68610 34997 ft 453 kts 186°
2026-05-05 17:24 48.83278 40.66877 35004 ft 453 kts 188°
2026-05-05 17:25 48.79366 40.65731 35006 ft 454 kts 188°